User: anonymous   Login
Location: Nirvana
(45.0297°N, 77.2628°W)
Time: 03:59:32
(UTC-04:00)
Language:

H-2A R/B - Orbit

View from above orbital plane
View from above orbital plane
View from above satellite
View from above satellite

Ground track
Ground track

The orbit data is extracted from the following two-line orbital elements,

1 27601U 02056E   16148.85866016  .00000028  00000-0  25707-4 0  9994
2 27601  98.4191 222.9798 0072072 358.2574 114.2438 14.31713900702675
Epoch (UTC): 27 May 2016 20:36:28
Eccentricity: 0.0072072
inclination: 98.4191°
perigee height: 734 km
apogee height: 837 km
right ascension of ascending node: 222.9798°
argument of perigee: 358.2574°
revolutions per day: 14.31713900
mean anomaly at epoch: 114.2438°
orbit number at epoch: 70267

The dashed part of the orbit path shows where the satellite is in the earth's shadow,  

DLR